Farmville, Virginia, United States (23901)
Lat: 37.30N, Lon: 78.39W
Wx Zone: VAZ060
Local Info
Past Weather Observations for Today

NOTE: This archive is for the closest National Weather Service station to Farmville. Information may differ from the station used for current weather conditions.

Click here for Long-term Archive

Time Weather Temperature Dewpoint Humidity Pressure Winds Precip Visibility
16:35
Clear
73°F / 23°C 63°F / 17°C 69% 29.86 in
(1011 mb)
E 4.6 mph
(E 7 kph)
- 10SM
16:15
Partly Cloudy
73°F / 23°C 63°F / 17°C 69% 29.86 in
(1011 mb)
ENE 5.8 mph
(ENE 9 kph)
- 10SM
15:55
Partly Cloudy
73°F / 23°C 63°F / 17°C 69% 29.86 in
(1011 mb)
ENE 6.9 mph
(ENE 11 kph)
- 10SM
15:35
Mostly Cloudy
73°F / 23°C 63°F / 17°C 69% 29.86 in
(1011 mb)
E 3.5 mph
(E 6 kph)
- 10SM
15:15
Overcast
73°F / 23°C 63°F / 17°C 69% 29.89 in
(1012 mb)
E 5.8 mph
(E 9 kph)
- 10SM
14:55
Overcast
72°F / 22°C 63°F / 17°C 73% 29.86 in
(1011 mb)
E 3.5 mph
(E 6 kph)
- 10SM
14:35
Overcast
72°F / 22°C 63°F / 17°C 73% 29.89 in
(1012 mb)
SE 3.5 mph
(SE 6 kph)
- 10SM
14:15
Overcast
72°F / 22°C 61°F / 16°C 69% 29.89 in
(1012 mb)
Calm - 10SM
13:55
Overcast
72°F / 22°C 61°F / 16°C 69% 29.89 in
(1012 mb)
Calm - 10SM
13:35
Overcast
70°F / 21°C 61°F / 16°C 73% 29.89 in
(1012 mb)
Calm - 10SM
13:15
Overcast
72°F / 22°C 61°F / 16°C 69% 29.89 in
(1012 mb)
E 4.6 mph
(E 7 kph)
- 10SM
12:55
Overcast
70°F / 21°C 61°F / 16°C 73% 29.89 in
(1012 mb)
Calm - 10SM
12:35
Overcast
68°F / 20°C 66°F / 19°C 94% 29.92 in
(1013 mb)
Calm - 10SM
12:15
Overcast
68°F / 20°C 66°F / 19°C 94% 29.92 in
(1013 mb)
Calm - 10SM
11:55
Overcast
70°F / 21°C 66°F / 19°C 88% 29.92 in
(1013 mb)
SE 3.5 mph
(SE 6 kph)
- 10SM
11:35
Overcast
68°F / 20°C 64°F / 18°C 88% 29.92 in
(1013 mb)
Calm - 10SM
11:15
Overcast
68°F / 20°C 64°F / 18°C 88% 29.92 in
(1013 mb)
Calm - 10SM
10:55
Overcast
66°F / 19°C 64°F / 18°C 94% 29.92 in
(1013 mb)
Calm - 7SM
10:35
Overcast
66°F / 19°C 64°F / 18°C 94% 29.92 in
(1013 mb)
Calm - 10SM
10:15
Overcast
66°F / 19°C 64°F / 18°C 94% 29.92 in
(1013 mb)
Calm - 10SM
09:55
Overcast
66°F / 19°C 64°F / 18°C 94% 29.95 in
(1014 mb)
Calm - 10SM
09:35
Overcast
64°F / 18°C 64°F / 18°C 100% 29.95 in
(1014 mb)
Calm - 10SM
09:15
Overcast
64°F / 18°C 64°F / 18°C 100% 29.95 in
(1014 mb)
Calm - 10SM
08:55
Overcast
64°F / 18°C 64°F / 18°C 100% 29.95 in
(1014 mb)
SSW 3.5 mph
(SSW 6 kph)
- 10SM
08:35
Overcast
64°F / 18°C 64°F / 18°C 100% 29.92 in
(1013 mb)
SSE 3.5 mph
(SSE 6 kph)
- 7SM
08:15
Overcast
64°F / 18°C 64°F / 18°C 100% 29.92 in
(1013 mb)
Calm - 7SM
07:55
Overcast
64°F / 18°C 64°F / 18°C 100% 29.92 in
(1013 mb)
Calm - 10SM
07:35
Overcast
66°F / 19°C 64°F / 18°C 94% 29.92 in
(1013 mb)
Calm - 10SM
07:15
Overcast
64°F / 18°C 63°F / 17°C 94% 29.92 in
(1013 mb)
Calm - 7SM
06:55
Overcast
64°F / 18°C 63°F / 17°C 94% 29.92 in
(1013 mb)
Calm - 10SM
06:35
Overcast
64°F / 18°C 63°F / 17°C 94% 29.92 in
(1013 mb)
Calm - 7SM
06:15
Overcast
64°F / 18°C 64°F / 18°C 100% 29.92 in
(1013 mb)
Calm - 10SM
05:55
Overcast
64°F / 18°C 63°F / 17°C 94% 29.92 in
(1013 mb)
Calm - 10SM
05:35
Overcast
64°F / 18°C 63°F / 17°C 94% 29.92 in
(1013 mb)
Calm - 10SM
05:15
Overcast
64°F / 18°C 64°F / 18°C 100% 29.92 in
(1013 mb)
Calm - 10SM
04:55
Overcast
64°F / 18°C 64°F / 18°C 100% 29.92 in
(1013 mb)
Calm - 10SM
04:35
Overcast
64°F / 18°C 64°F / 18°C 100% 29.92 in
(1013 mb)
Calm - 10SM
04:15
Overcast
64°F / 18°C 63°F / 17°C 94% 29.89 in
(1012 mb)
Calm - 7SM
03:55
Overcast
64°F / 18°C 63°F / 17°C 94% 29.92 in
(1013 mb)
Calm - 7SM
03:35
Overcast
64°F / 18°C 63°F / 17°C 94% 29.89 in
(1012 mb)
Calm - 7SM
03:15
Overcast
64°F / 18°C 63°F / 17°C 94% 29.92 in
(1013 mb)
Calm - 7SM
02:55
Overcast
64°F / 18°C 63°F / 17°C 94% 29.92 in
(1013 mb)
Calm - 7SM
02:35
Overcast
64°F / 18°C 63°F / 17°C 94% 29.92 in
(1013 mb)
SW 3.5 mph
(SW 6 kph)
- 7SM
02:15
Overcast
64°F / 18°C 63°F / 17°C 94% 29.92 in
(1013 mb)
SSW 4.6 mph
(SSW 7 kph)
- 7SM
01:55
Overcast
64°F / 18°C 63°F / 17°C 94% 29.92 in
(1013 mb)
Calm - 7SM
01:35
Overcast
64°F / 18°C 63°F / 17°C 94% 29.92 in
(1013 mb)
SW 4.6 mph
(SW 7 kph)
- 7SM
01:15
Overcast
Fog And Mist
64°F / 18°C 63°F / 17°C 94% 29.92 in
(1013 mb)
SW 3.5 mph
(SW 6 kph)
- 5SM
00:55
Overcast
64°F / 18°C 63°F / 17°C 94% 29.95 in
(1014 mb)
SW 5.8 mph
(SW 9 kph)
- 10SM
00:35
Overcast
64°F / 18°C 63°F / 17°C 94% 29.95 in
(1014 mb)
Calm - 7SM
00:15
Overcast
Fog And Mist
64°F / 18°C 63°F / 17°C 94% 29.95 in
(1014 mb)
Calm - 5SM
Time Weather Temperature Dewpoint Humidity Pressure Winds Precip Visibility


Weather for websites

WeatherForYou.com, LLC is not responsible for any damages or problems caused by this service. Current weather conditions are obtained from the closest station including government and personal stations which may have varying degrees of accuracy. Weather forecasts are derived from the NOAA NDFD. Like all things, this site belongs to Jesus Christ... He just trusts me to maintain it. If you have any questions or comments email webmaster@weatherforyou.com

Copyright © 2014, WeatherForYou.com LLC. All rights reserved.